Time,TemperatureF,DewpointF,PressureIn,WindDirection,WindDirectionDegrees,WindSpeedMPH,WindSpeedGustMPH,Humidity,HourlyPrecipIn,Conditions,Clouds,dailyrainin,SoftwareType,DateUTC
2013-07-31 00:13:00,76.2,75.0,30.12,SSE,159,0.0,0.0,96,0.00,,,0.00,weatherlink.com 1.10,2013-07-31 04:13:00,
2013-07-31 00:28:00,76.1,75.0,30.12,SSE,158,0.0,0.0,97,0.00,,,0.00,weatherlink.com 1.10,2013-07-31 04:28:00,
2013-07-31 00:43:00,75.9,75.0,30.12,SSE,157,0.0,0.0,97,0.00,,,0.00,weatherlink.com 1.10,2013-07-31 04:43:00,
2013-07-31 00:58:00,75.7,75.0,30.13,SSE,158,0.0,0.0,97,0.00,,,0.00,weatherlink.com 1.10,2013-07-31 04:58:00,
2013-07-31 01:14:00,75.3,74.0,30.13,SSE,158,0.0,0.0,97,0.00,,,0.00,weatherlink.com 1.10,2013-07-31 05:14:00,
2013-07-31 01:28:00,75.3,74.0,30.13,SSE,158,0.0,0.0,97,0.00,,,0.00,weatherlink.com 1.10,2013-07-31 05:28:00,
2013-07-31 01:43:00,75.3,74.0,30.12,SSE,158,0.0,0.0,97,0.00,,,0.00,weatherlink.com 1.10,2013-07-31 05:43:00,
2013-07-31 01:58:00,75.3,74.0,30.12,SSE,157,0.0,0.0,97,0.00,,,0.00,weatherlink.com 1.10,2013-07-31 05:58:00,
2013-07-31 02:13:00,75.2,75.0,30.11,SSE,157,0.0,0.0,98,0.00,,,0.00,weatherlink.com 1.10,2013-07-31 06:13:00,
2013-07-31 02:28:00,75.3,75.0,30.11,SSE,157,0.0,0.0,98,0.00,,,0.00,weatherlink.com 1.10,2013-07-31 06:28:00,
2013-07-31 02:43:00,75.6,75.0,30.10,SSE,159,0.0,0.0,98,0.00,,,0.00,weatherlink.com 1.10,2013-07-31 06:43:00,
2013-07-31 02:58:00,75.5,75.0,30.10,SSE,158,0.0,0.0,98,0.00,,,0.00,weatherlink.com 1.10,2013-07-31 06:58:00,
2013-07-31 03:13:00,75.4,75.0,30.09,SSE,158,0.0,0.0,98,0.00,,,0.00,weatherlink.com 1.10,2013-07-31 07:13:00,
2013-07-31 03:28:00,75.2,75.0,30.09,SSE,157,0.0,0.0,98,0.00,,,0.00,weatherlink.com 1.10,2013-07-31 07:28:00,
2013-07-31 03:43:00,75.2,75.0,30.09,SSE,158,0.0,0.0,98,0.00,,,0.00,weatherlink.com 1.10,2013-07-31 07:43:00,
2013-07-31 03:58:00,75.1,75.0,30.09,SSE,157,0.0,0.0,98,0.00,,,0.00,weatherlink.com 1.10,2013-07-31 07:58:00,
2013-07-31 04:28:00,75.0,74.0,30.09,SSE,157,0.0,0.0,98,0.00,,,0.00,weatherlink.com 1.10,2013-07-31 08:28:00,
2013-07-31 04:43:00,75.1,75.0,30.09,SSE,157,0.0,0.0,98,0.00,,,0.00,weatherlink.com 1.10,2013-07-31 08:43:00,
2013-07-31 04:58:00,75.0,74.0,30.10,SSE,157,0.0,0.0,98,0.00,,,0.00,weatherlink.com 1.10,2013-07-31 08:58:00,
2013-07-31 05:13:00,74.9,74.0,30.10,SSE,157,0.0,0.0,98,0.00,,,0.00,weatherlink.com 1.10,2013-07-31 09:13:00,
2013-07-31 05:28:00,74.9,74.0,30.10,SSE,158,0.0,0.0,98,0.00,,,0.00,weatherlink.com 1.10,2013-07-31 09:28:00,
2013-07-31 05:43:00,75.0,74.0,30.10,SSE,158,0.0,0.0,98,0.00,,,0.00,weatherlink.com 1.10,2013-07-31 09:43:00,
2013-07-31 05:58:00,74.9,74.0,30.10,SSE,150,0.0,0.0,98,0.00,,,0.00,weatherlink.com 1.10,2013-07-31 09:58:00,
2013-07-31 06:13:00,74.7,74.0,30.11,SSE,150,0.0,0.0,98,0.00,,,0.00,weatherlink.com 1.10,2013-07-31 10:13:00,
2013-07-31 06:28:00,74.4,74.0,30.11,SSE,150,0.0,0.0,98,0.00,,,0.00,weatherlink.com 1.10,2013-07-31 10:28:00,
2013-07-31 06:43:00,74.3,74.0,30.11,SSE,150,0.0,0.0,98,0.00,,,0.00,weatherlink.com 1.10,2013-07-31 10:43:00,
2013-07-31 06:58:00,74.3,74.0,30.11,SSE,150,0.0,0.0,98,0.00,,,0.00,weatherlink.com 1.10,2013-07-31 10:58:00,
2013-07-31 07:13:00,74.7,74.0,30.12,NNE,12,0.0,0.0,98,0.00,,,0.00,weatherlink.com 1.10,2013-07-31 11:13:00,
2013-07-31 07:28:00,75.1,75.0,30.12,East,82,0.0,1.0,98,0.00,,,0.00,weatherlink.com 1.10,2013-07-31 11:28:00,
2013-07-31 07:43:00,75.3,75.0,30.11,NE,56,2.0,3.0,98,0.00,,,0.00,weatherlink.com 1.10,2013-07-31 11:43:00,
2013-07-31 07:58:00,75.9,75.0,30.11,North,357,0.0,2.0,98,0.00,,,0.00,weatherlink.com 1.10,2013-07-31 11:58:00,
2013-07-31 08:13:00,77.0,76.0,30.11,East,83,1.0,2.0,98,0.00,,,0.00,weatherlink.com 1.10,2013-07-31 12:13:00,
2013-07-31 08:28:00,78.2,77.0,30.11,NE,53,0.0,3.0,96,0.00,,,0.00,weatherlink.com 1.10,2013-07-31 12:28:00,
2013-07-31 08:43:00,79.0,77.0,30.12,East,81,0.0,2.0,93,0.00,,,0.00,weatherlink.com 1.10,2013-07-31 12:43:00,
2013-07-31 08:58:00,79.8,77.0,30.13,North,2,0.0,3.0,92,0.00,,,0.00,weatherlink.com 1.10,2013-07-31 12:58:00,
2013-07-31 09:14:00,81.5,78.0,30.13,East,89,1.0,3.0,88,0.00,,,0.00,weatherlink.com 1.10,2013-07-31 13:14:00,
2013-07-31 09:29:00,82.3,78.0,30.13,North,351,1.0,2.0,86,0.00,,,0.00,weatherlink.com 1.10,2013-07-31 13:29:00,
2013-07-31 09:44:00,82.5,78.0,30.13,North,3,0.0,4.0,85,0.00,,,0.00,weatherlink.com 1.10,2013-07-31 13:44:00,
2013-07-31 09:59:00,83.0,77.0,30.12,SE,126,2.0,4.0,83,0.00,,,0.00,weatherlink.com 1.10,2013-07-31 13:59:00,
2013-07-31 10:14:00,83.9,78.0,30.12,South,178,0.0,2.0,81,0.00,,,0.00,weatherlink.com 1.10,2013-07-31 14:14:00,
2013-07-31 10:29:00,83.9,78.0,30.12,NE,44,2.0,4.0,81,0.00,,,0.00,weatherlink.com 1.10,2013-07-31 14:29:00,
2013-07-31 10:44:00,83.9,77.0,30.12,North,360,1.0,4.0,79,0.00,,,0.00,weatherlink.com 1.10,2013-07-31 14:44:00,
2013-07-31 10:59:00,84.4,77.0,30.12,East,87,1.0,3.0,78,0.00,,,0.00,weatherlink.com 1.10,2013-07-31 14:59:00,
2013-07-31 11:14:00,85.1,78.0,30.12,ENE,73,3.0,4.0,78,0.00,,,0.00,weatherlink.com 1.10,2013-07-31 15:14:00,
2013-07-31 11:29:00,85.2,78.0,30.12,East,90,2.0,5.0,78,0.00,,,0.00,weatherlink.com 1.10,2013-07-31 15:29:00,
2013-07-31 11:44:00,85.2,78.0,30.11,SW,215,2.0,5.0,78,0.00,,,0.00,weatherlink.com 1.10,2013-07-31 15:44:00,
2013-07-31 11:59:00,85.3,77.0,30.11,East,99,1.0,5.0,77,0.00,,,0.00,weatherlink.com 1.10,2013-07-31 15:59:00,
2013-07-31 12:14:00,84.5,78.0,30.11,ESE,109,0.0,6.0,80,0.00,,,0.00,weatherlink.com 1.10,2013-07-31 16:14:00,
2013-07-31 12:29:00,83.7,77.0,30.11,SSE,151,2.0,5.0,81,0.00,,,0.00,weatherlink.com 1.10,2013-07-31 16:29:00,
2013-07-31 12:44:00,83.2,77.0,30.11,ENE,72,2.0,7.0,82,0.00,,,0.00,weatherlink.com 1.10,2013-07-31 16:44:00,
2013-07-31 12:59:00,83.4,77.0,30.10,SE,145,4.0,6.0,80,0.00,,,0.00,weatherlink.com 1.10,2013-07-31 16:59:00,
2013-07-31 13:14:00,83.4,77.0,30.10,East,92,0.0,5.0,81,0.00,,,0.00,weatherlink.com 1.10,2013-07-31 17:14:00,
2013-07-31 13:29:00,82.8,77.0,30.09,South,178,1.0,6.0,82,0.00,,,0.00,weatherlink.com 1.10,2013-07-31 17:29:00,
2013-07-31 13:44:00,82.7,77.0,30.09,SW,220,0.0,4.0,82,0.00,,,0.00,weatherlink.com 1.10,2013-07-31 17:44:00,
2013-07-31 13:59:00,82.9,77.0,30.09,SE,137,4.0,6.0,82,0.00,,,0.00,weatherlink.com 1.10,2013-07-31 17:59:00,
2013-07-31 14:14:00,82.4,77.0,30.09,SE,133,1.0,4.0,83,0.00,,,0.00,weatherlink.com 1.10,2013-07-31 18:14:00,
2013-07-31 14:29:00,82.1,77.0,30.08,WNW,291,1.0,4.0,83,0.00,,,0.00,weatherlink.com 1.10,2013-07-31 18:29:00,
2013-07-31 14:44:00,81.9,76.0,30.08,SSW,202,0.0,5.0,83,0.00,,,0.00,weatherlink.com 1.10,2013-07-31 18:44:00,
2013-07-31 14:59:00,81.6,77.0,30.07,SE,125,0.0,5.0,85,0.00,,,0.00,weatherlink.com 1.10,2013-07-31 18:59:00,
2013-07-31 15:13:00,81.4,77.0,30.06,SW,233,3.0,6.0,85,0.00,,,0.00,weatherlink.com 1.10,2013-07-31 19:13:00,
2013-07-31 15:29:00,81.4,77.0,30.06,NNW,343,0.0,4.0,87,0.00,,,0.00,weatherlink.com 1.10,2013-07-31 19:29:00,
2013-07-31 15:44:00,81.7,77.0,30.06,South,184,3.0,8.0,85,0.00,,,0.00,weatherlink.com 1.10,2013-07-31 19:44:00,
2013-07-31 15:59:00,82.2,77.0,30.05,SSW,196,0.0,4.0,84,0.00,,,0.00,weatherlink.com 1.10,2013-07-31 19:59:00,
2013-07-31 16:14:00,82.5,76.0,30.05,SSE,156,4.0,11.0,81,0.00,,,0.00,weatherlink.com 1.10,2013-07-31 20:14:00,
2013-07-31 16:29:00,82.2,76.0,30.05,SW,225,0.0,7.0,82,0.00,,,0.00,weatherlink.com 1.10,2013-07-31 20:29:00,
2013-07-31 16:44:00,81.9,77.0,30.04,SE,135,3.0,8.0,84,0.00,,,0.00,weatherlink.com 1.10,2013-07-31 20:44:00,
2013-07-31 16:59:00,81.4,77.0,30.04,SSW,208,1.0,3.0,86,0.00,,,0.00,weatherlink.com 1.10,2013-07-31 20:59:00,
2013-07-31 17:14:00,80.9,77.0,30.04,WSW,251,0.0,2.0,87,0.00,,,0.00,weatherlink.com 1.10,2013-07-31 21:14:00,
2013-07-31 17:29:00,80.8,77.0,30.02,WNW,293,0.0,3.0,87,0.00,,,0.00,weatherlink.com 1.10,2013-07-31 21:29:00,
2013-07-31 17:44:00,80.5,77.0,30.03,WSW,240,1.0,3.0,88,0.00,,,0.00,weatherlink.com 1.10,2013-07-31 21:44:00,
2013-07-31 17:59:00,80.1,77.0,30.03,West,267,1.0,2.0,90,0.00,,,0.00,weatherlink.com 1.10,2013-07-31 21:59:00,
2013-07-31 18:14:00,79.4,77.0,30.03,SSW,195,1.0,2.0,91,0.00,,,0.00,weatherlink.com 1.10,2013-07-31 22:14:00,
2013-07-31 18:29:00,78.8,76.0,30.02,SSW,203,0.0,3.0,92,0.00,,,0.00,weatherlink.com 1.10,2013-07-31 22:29:00,
2013-07-31 18:44:00,78.5,76.0,30.03,West,277,2.0,3.0,93,0.00,,,0.00,weatherlink.com 1.10,2013-07-31 22:44:00,
2013-07-31 18:59:00,78.0,76.0,30.03,SW,215,0.0,0.0,93,0.00,,,0.00,weatherlink.com 1.10,2013-07-31 22:59:00,
2013-07-31 19:14:00,77.4,75.0,30.04,WSW,250,0.0,0.0,92,0.00,,,0.00,weatherlink.com 1.10,2013-07-31 23:14:00,
2013-07-31 19:30:00,77.2,75.0,30.05,SSW,194,0.0,2.0,92,0.00,,,0.00,weatherlink.com 1.10,2013-07-31 23:30:00,
2013-07-31 19:45:00,76.6,74.0,30.05,SSW,195,0.0,0.0,92,0.01,,,0.01,weatherlink.com 1.10,2013-07-31 23:45:00,
2013-07-31 20:01:00,76.1,74.0,30.04,SSW,195,0.0,0.0,94,0.02,,,0.02,weatherlink.com 1.10,2013-08-01 00:01:00,
2013-07-31 20:15:00,75.7,74.0,30.04,SSW,195,0.0,0.0,94,0.03,,,0.03,weatherlink.com 1.10,2013-08-01 00:15:00,
2013-07-31 20:30:00,75.4,74.0,30.04,SSW,195,0.0,0.0,95,0.04,,,0.04,weatherlink.com 1.10,2013-08-01 00:30:00,
2013-07-31 20:45:00,75.4,74.0,30.04,SSW,196,0.0,0.0,96,0.04,,,0.05,weatherlink.com 1.10,2013-08-01 00:45:00,
2013-07-31 21:00:00,75.3,74.0,30.05,SSW,195,0.0,0.0,96,0.04,,,0.06,weatherlink.com 1.10,2013-08-01 01:00:00,
2013-07-31 21:15:00,75.6,75.0,30.05,SSW,196,0.0,0.0,97,0.04,,,0.07,weatherlink.com 1.10,2013-08-01 01:15:00,
2013-07-31 21:30:00,75.6,75.0,30.05,SSW,195,0.0,0.0,97,0.03,,,0.07,weatherlink.com 1.10,2013-08-01 01:30:00,
2013-07-31 21:45:00,75.7,75.0,30.05,SSW,195,0.0,0.0,97,0.03,,,0.08,weatherlink.com 1.10,2013-08-01 01:45:00,
2013-07-31 22:00:00,75.6,75.0,30.05,SSW,195,0.0,0.0,97,0.02,,,0.08,weatherlink.com 1.10,2013-08-01 02:00:00,
2013-07-31 22:15:00,75.9,75.0,30.05,SSW,195,0.0,0.0,97,0.01,,,0.08,weatherlink.com 1.10,2013-08-01 02:15:00,
2013-07-31 22:30:00,75.8,75.0,30.05,NW,308,1.0,3.0,97,0.10,,,0.17,weatherlink.com 1.10,2013-08-01 02:30:00,
2013-07-31 22:45:00,74.8,74.0,30.04,SW,216,0.0,2.0,97,0.15,,,0.23,weatherlink.com 1.10,2013-08-01 02:45:00,
2013-07-31 23:00:00,75.0,74.0,30.03,SW,216,0.0,0.0,97,0.15,,,0.23,weatherlink.com 1.10,2013-08-01 03:00:00,
2013-07-31 23:15:00,75.1,75.0,30.02,SW,217,0.0,0.0,98,0.16,,,0.24,weatherlink.com 1.10,2013-08-01 03:15:00,
2013-07-31 23:30:00,75.0,74.0,30.02,SSW,203,0.0,0.0,98,0.06,,,0.24,weatherlink.com 1.10,2013-08-01 03:30:00,
2013-07-31 23:45:00,74.8,74.0,30.01,SSE,164,0.0,0.0,98,0.01,,,0.24,weatherlink.com 1.10,2013-08-01 03:45:00,